| Station | Date | Time | Temp (°F) | RH (%) | Dew Pt (°F) | Wind Spd (mph) | Wind Dir (°) | Wind Gust (mph) | Latest Rain (In) | Daily Rain (In) | Daily Max Temp (°F) | Daily Min Temp (°F) |
|---|---|---|---|---|---|---|---|---|---|---|---|---|
| Dollarhide 18A Remote | 5/10/26 | 0815 | 59.5 1.0 | 82 2 | 54.0 1.5 | - | - | - | - | - | 61.2 1.5 | 43.7 1.6 |
| Dollarhide 1AS Remote | 5/10/26 | 0815 | 59.6 1.5 | 82 2 | 53.9 2.0 | 0.2 0.2 | E | 100 | 2.2 0.0 | - | - | 60.5 1.2 | 47.0 0.8 |
| Angwin | 5/10/26 | 0815 | 69.5 1.2 | 47 9 | 48.2 3.6 | 2.4 2.5 | N | 360 | 4.2 4.2 | 0.00 | 0.00 | 71.3 2.7 | 63.5 3.4 |
| Lower Angwin (Pioneer) | 5/10/26 | 0815 | 60.1 11.2 | - | - | 1.4 0.4 | SW | 232 | 2.7 2.3 | - | - | 61.1 10.9 | 44.3 5.8 |
| Lower Chiles Valley (Brown) | 5/10/26 | 0815 | 51.0 3.4 | 100 13 | 51.0 0.5 | 3.0 2.7 | SW | 226 | 6.3 2.7 | 0.00 | 0.00 | 53.5 1.2 | 50.4 2.6 |
| Deer Park | 5/10/26 | 0815 | 52.6 6.0 | 99 24 | 52.3 1.7 | 1.9 0.9 | W | 274 | 3.9 1.5 | 0.00 | 0.00 | 54.7 4.0 | 50.5 0.8 |
| Moss Creek Vineyard/Reservior | 5/10/26 | 0815 | 55.2 5.3 | 88 12 | 51.6 1.2 | - | - | - | 0.00 | 0.00 | 56.5 5.2 | 49.9 0.5 |
| Montesol | 5/10/26 | 0815 | 69.5 1.1 | - | - | - | - | - | 0.00 | 0.00 | 69.5 1.1 | 50.1 0.8 |
| Dollarhide Base | 5/10/26 | 0815 | 61.4 1.5 | 77 1 | 54.1 2.0 | 0.9 0.4 | SSW | 207 | 2.6 0.1 | 0.00 | 0.00 | 63.2 0.7 | 50.3 1.0 |
| Pope Valley (Weeks Lake) | 5/10/26 | 0815 | 61.0 1.2 | 75 0 | 52.9 1.0 | 0.4 0.1 | ENE | 75 | 2.0 0.2 | 0.00 | 0.00 | 61.5 1.0 | 45.5 1.2 |
| Max | 69.5 | 100 | 54.1 | 3.0 | - | 6.3 | 0.00 | 0.00 | 71.3 | 63.5 | ||
| Avg | 59.9 | 81 | 52.3 | 1.5 | - | 3.4 | 0.00 | - | - | - | ||
| Min | 51.0 | 47 | 48.2 | 0.2 | - | 2.0 | 0.00 | 0.00 | 53.5 | 43.7 |
| Station | Date | Time | Temp (°F) | RH (%) | Dew Pt (°F) | Wind Spd (mph) | Wind Dir (°) | Wind Gust (mph) | Latest Rain (In) | Daily Rain (In) | Daily Max Temp (°F) | Daily Min Temp (°F) |
|---|---|---|---|---|---|---|---|---|---|---|---|---|
| Calistoga-North | 5/10/26 | 0815 | 54.1 6.6 | 94 14 | 52.5 2.3 | - | - | - | 0.00 | 0.00 | 54.2 6.6 | 49.1 0.8 |
| Stags Leap Dist (Chimney Rock) | 5/10/26 | 0815 | 52.9 1.1 | 95 0 | 51.7 1.0 | 1.6 1.1 | SE | 133 | 3.5 2.2 | 0.00 | 0.00 | 55.2 1.1 | 49.6 3.9 |
| Diamond Mtn (McEachran) | 5/10/26 | 0815 | 52.6 2.3 | 98 8 | 52.1 0.2 | - | - | - | - | - | 54.2 1.2 | 51.3 1.1 |
| Diamond Mtn (Schramsberg) | 5/10/26 | 0815 | 51.8 4.6 | 100 16 | 51.8 0.1 | - | - | - | 0.00 | 0.00 | 53.9 3.0 | 50.3 0.2 |
| Stags Leap Dist (Silverado Vineyards) | 5/10/26 | 0815 | 51.7 1.2 | 94 1 | 50.1 0.8 | 1.0 1.3 | SSE | 160 | 2.7 1.8 | 0.00 | 0.00 | 54.4 1.2 | 48.1 1.3 |
| Oak Knoll-East (Ranch 53) | 5/10/26 | 0815 | 52.6 1.3 | 94 2 | 51.0 0.6 | 1.5 0.0 | ESE | 111 | 3.4 0.1 | 0.00 | 0.00 | 53.2 0.9 | 49.7 2.0 |
| Rutherford-North (Mee Ln) | 5/10/26 | 0815 | 49.4 6.4 | 96 13 | 48.2 2.5 | 2.2 0.4 | SE | 138 | 3.9 0.7 | 0.00 | 0.00 | 52.7 3.6 | 46.1 1.5 |
| Frisinger Napa-NW | 5/10/26 | 0815 | 52.2 1.8 | 95 4 | 50.8 0.6 | 1.3 0.2 | N | 359 | 3.2 0.9 | 0.00 | 0.00 | 52.3 1.7 | 46.8 0.5 |
| Napa-North (Ranch 29) | 5/10/26 | 0815 | 52.1 2.0 | 100 0 | 52.1 1.9 | 1.0 0.2 | SSW | 207 | 3.1 0.3 | 0.00 | 0.00 | 53.8 0.7 | 51.5 2.7 |
| St. Helena (NVV Office) | 5/10/26 | 0815 | 54.1 5.1 | - | - | 1.3 0.1 | SE | 145 | 4.5 1.0 | 0.00 | 0.00 | 56.4 3.5 | 53.1 3.4 |
| Crossroads Ranch | 5/10/26 | 0815 | 52.5 1.5 | 92 3 | 50.4 0.5 | 1.4 1.9 | SE | 124 | 3.9 2.5 | 0.00 | 0.00 | 54.4 0.4 | 49.0 1.2 |
| Oakville | 5/10/26 | 0815 | 52.5 1.0 | 96 4 | 51.5 0.0 | 1.3 1.5 | ENE | 61 | 3.1 2.1 | 0.00 | 0.00 | 54.0 0.2 | 48.3 0.9 |
| OV561-East | 5/10/26 | 0815 | 53.1 1.1 | - | - | - | - | - | - | - | 53.8 1.1 | 49.2 1.3 |
| OV518-West | 5/10/26 | 0815 | 52.6 1.3 | - | - | - | - | - | - | - | 54.2 0.4 | 49.0 0.9 |
| Napa-NW (Ranch 54) | 5/10/26 | 0815 | 53.0 1.7 | 99 7 | 52.9 0.2 | 0.3 0.1 | S | 190 | 1.8 1.3 | 0.00 | 0.00 | 53.4 1.8 | 48.6 0.2 |
| Calistoga (Ranch 78) | 5/10/26 | 0815 | 54.4 6.0 | 91 16 | 51.8 0.7 | 0.8 0.4 | NE | 54 | 2.5 0.3 | 0.00 | 0.00 | 54.4 6.0 | 48.1 0.3 |
| Yountville-SE (Ranch 85) | 5/10/26 | 0815 | 52.6 0.7 | 95 1 | 51.3 0.9 | 2.1 0.3 | SE | 127 | 4.4 0.7 | 0.00 | 0.00 | 54.8 1.1 | 50.9 2.9 |
| Yountville-South (Ranch 87) | 5/10/26 | 0815 | 52.3 1.5 | 100 6 | 52.3 0.2 | 1.2 0.8 | SW | 218 | 2.8 1.7 | 0.00 | 0.00 | 53.0 1.0 | 48.9 1.2 |
| Rutherford Hill Estate | 5/10/26 | 0815 | 51.5 2.4 | 100 4 | 51.5 1.1 | 1.5 0.2 | S | 181 | 3.3 0.4 | 0.00 | 0.00 | 53.6 1.3 | 51.2 1.0 |
| Rutherford (STS) | 5/10/26 | 0815 | 52.7 3.9 | 86 2 | 48.6 4.4 | 2.4 0.1 | ESE | 123 | 5.0 0.0 | 0.00 | 0.00 | 53.0 5.2 | 47.2 0.3 |
| Borreo (Soda Canyon) | 5/10/26 | 0815 | 50.5 1.3 | 98 3 | 50.0 0.5 | 1.1 0.0 | S | 190 | 3.2 0.1 | 0.00 | 0.00 | 50.7 1.4 | 46.9 1.5 |
| Oakville-NE (Ranch 88) | 5/10/26 | 0815 | 52.7 1.5 | 94 2 | 51.2 1.9 | 1.1 1.2 | SSE | 151 | 3.1 2.0 | 0.00 | 0.00 | 52.9 2.2 | 47.2 0.7 |
| Soda Canyon | 5/10/26 | 0815 | 52.1 1.6 | 91 2 | 49.7 0.9 | 0.2 1.7 | NNE | 20 | 1.4 3.0 | 0.00 | 0.00 | 53.2 0.7 | 49.3 2.5 |
| Silver Oak OV | 5/10/26 | 0815 | 52.6 1.9 | 95 3 | 51.2 1.0 | 1.4 1.6 | NE | 54 | 4.2 2.2 | 0.00 | 0.00 | 54.3 0.7 | 48.4 0.9 |
| Tiara Fria (East St. Helena) | 5/10/26 | 0815 | 53.3 4.3 | 94 17 | 51.8 1.0 | 2.5 0.7 | SSE | 166 | 4.1 0.1 | 0.00 | 0.00 | 55.2 2.9 | 52.4 2.4 |
| To Kalon Remote (TKKE) | 5/10/26 | 0815 | 53.0 3.0 | - | - | - | - | - | - | - | 53.2 3.2 | 47.6 0.6 |
| To Kalon | 5/10/26 | 0815 | 52.3 3.5 | 97 9 | 51.4 0.7 | 1.7 0.9 | ESE | 114 | 3.8 1.6 | 0.00 | 0.00 | 52.6 3.7 | 48.1 0.7 |
| To Kalon Remote (TKN5) | 5/10/26 | 0815 | 52.8 3.0 | - | - | - | - | - | - | - | 53.2 3.2 | 47.9 0.4 |
| St. Helena-North | 5/10/26 | 0815 | 54.7 5.2 | 86 17 | 50.8 0.8 | 0.6 0.7 | SSE | 153 | 2.6 0.4 | 0.00 | 0.00 | 55.0 5.4 | 50.4 1.3 |
| Twomey Calistoga | 5/10/26 | 0815 | 54.1 5.5 | 93 16 | 52.2 0.1 | 0.9 0.2 | NNE | 18 | 2.6 0.5 | 0.00 | 0.00 | 54.1 5.5 | 45.7 0.2 |
| Wappo Hill Floor | 5/10/26 | 0815 | 51.4 0.9 | 100 1 | 51.4 0.6 | 1.9 0.4 | SE | 127 | 3.9 0.6 | 0.00 | 0.00 | 53.1 0.8 | 49.4 4.5 |
| Yountville (Ranch 67) | 5/10/26 | 0815 | 52.0 1.3 | 95 4 | 50.6 0.1 | 0.9 2.3 | SSE | 168 | 2.8 2.8 | 0.00 | 0.00 | 54.6 1.0 | 49.4 2.5 |
| Max | 54.7 | 100 | 52.9 | 2.5 | - | 5.0 | 0.00 | 0.00 | 56.4 | 53.1 | ||
| Avg | 52.6 | 95 | 51.1 | 1.3 | - | 3.3 | 0.00 | - | - | - | ||
| Min | 49.4 | 86 | 48.2 | 0.2 | - | 1.4 | 0.00 | 0.00 | 50.7 | 45.7 |
| Station | Date | Time | Temp (°F) | RH (%) | Dew Pt (°F) | Wind Spd (mph) | Wind Dir (°) | Wind Gust (mph) | Latest Rain (In) | Daily Rain (In) | Daily Max Temp (°F) | Daily Min Temp (°F) |
|---|---|---|---|---|---|---|---|---|---|---|---|---|
| Carneros (Milton Rd) | 5/10/26 | 0815 | 53.5 1.9 | 92 1 | 51.1 2.0 | - | - | - | 0.00 | 0.00 | 53.9 1.7 | 45.3 0.2 |
| Carneros Lower (Ranch 81) | 5/10/26 | 0815 | 52.9 2.3 | 92 1 | 50.6 2.1 | 0.9 0.5 | NW | 311 | 3.4 1.3 | 0.00 | 0.00 | 52.9 2.2 | 50.8 4.1 |
| Carneros Upper (Ranch 81) | 5/10/26 | 0815 | 51.6 2.9 | 1 86 | -55.2 105.9 | 3.5 2.7 | SW | 226 | 5.8 2.6 | - | - | 51.6 2.9 | 50.6 0.5 |
| Carneros (Mitsuko) | 5/10/26 | 0815 | 52.9 2.1 | - | - | - | - | - | - | - | 53.2 2.2 | 45.9 2.6 |
| Mount George (Napa East) | 5/10/26 | 0815 | 54.3 2.8 | 95 4 | 53.0 1.5 | 1.5 0.1 | SE | 133 | 4.1 1.0 | 0.00 | 0.00 | 56.2 2.2 | 52.9 0.6 |
| Napa-East (Palmaz 300') | 5/10/26 | 0815 | 52.4 1.8 | 95 6 | 51.0 0.2 | 1.2 0.1 | SSW | 210 | 3.7 0.7 | 0.00 | 0.00 | 52.9 1.3 | 50.8 0.8 |
| Napa-East (Palmaz 1200') | 5/10/26 | 0815 | 49.5 1.0 | 75 25 | 41.9 9.4 | 0.9 0.5 | WSW | 257 | 3.4 0.0 | - | - | 49.7 1.9 | 47.2 1.7 |
| Napa-East (Palmaz 1400') | 5/10/26 | 0815 | 49.6 1.5 | 100 0 | 49.6 1.5 | 2.3 0.9 | SSW | 198 | 4.8 0.8 | 0.00 | 0.00 | 50.8 5.0 | 47.9 0.5 |
| Dealy Lane (Ranch 80) | 5/10/26 | 0815 | 52.2 2.4 | 94 5 | 50.6 0.8 | 1.5 0.5 | W | 280 | 3.4 1.0 | 0.00 | 0.00 | 52.4 2.2 | 51.0 2.7 |
| Suscol Mtn (Ranch 93) | 5/10/26 | 0815 | 49.6 1.9 | 100 1 | 49.6 1.6 | 7.0 3.7 | NW | 316 | 10.8 5.3 | 0.00 | 0.00 | 51.5 0.2 | 48.6 1.2 |
| Carneros (Saintsbury) | 5/10/26 | 0815 | 50.2 3.1 | 100 7 | 50.2 1.0 | 2.8 2.2 | W | 266 | 4.8 2.4 | 0.00 | 0.00 | 50.3 3.3 | 48.7 2.7 |
| Sugarloaf West | 5/10/26 | 0815 | 53.0 2.4 | 93 4 | 50.9 1.2 | 2.9 1.9 | WSW | 245 | 6.1 1.6 | 0.00 | 0.00 | 54.6 0.8 | 50.4 0.8 |
| Suscol Upper (Ranch 92) | 5/10/26 | 0815 | 50.1 2.3 | 100 97 | 50.1 76.5 | 3.2 3.2 | WSW | 258 | 7.7 7.7 | 0.00 | 0.00 | 52.2 0.3 | 49.2 1.2 |
| Stanly (Ranch 45) | 5/10/26 | 0815 | 51.2 2.1 | 91 1 | 48.6 1.7 | 4.0 3.4 | WSW | 258 | 8.2 5.3 | 0.00 | 0.00 | 51.3 2.2 | 46.7 1.0 |
| Suscol Lower (Ranch 35) | 5/10/26 | 0815 | 52.5 3.0 | 91 3 | 50.0 2.1 | 3.9 2.6 | WSW | 250 | 6.5 2.2 | 0.00 | 0.00 | 53.5 2.0 | 50.3 1.5 |
| Napa-South (Toyon Farms) | 5/10/26 | 0815 | 52.2 2.1 | 100 2 | 52.2 1.5 | 0.3 0.3 | W | 265 | 2.9 2.9 | 0.00 | 0.00 | 52.4 2.2 | 49.6 0.2 |
| Toyon Remote 1 | 5/10/26 | 0815 | 52.9 1.4 | - | - | - | - | - | - | - | 53.1 1.6 | 42.5 0.4 |
| Toyon Remote 2 | 5/10/26 | 0815 | 52.9 2.0 | - | - | - | - | - | - | - | 53.2 2.0 | 47.3 1.9 |
| Toyon Remote 3 | 5/10/26 | 0815 | 53.2 1.4 | - | - | - | - | - | - | - | 53.4 1.5 | 47.0 1.0 |
| Napa-West Lower (Truchard) | 5/10/26 | 0815 | 51.3 2.4 | 98 0 | 50.7 2.4 | - | - | - | - | - | 51.4 2.5 | 45.3 2.2 |
| Napa-West Upper (Truchard) | 5/10/26 | 0815 | 50.1 3.4 | 0 18 | -66.0 24.2 | 1.7 1.6 | WNW | 296 | 3.6 1.2 | 0.00 | 0.00 | 51.3 2.5 | 49.5 0.3 |
| Mt. Veeder | 5/10/26 | 0815 | 53.0 8.6 | 93 19 | 50.9 2.2 | 1.4 0.5 | E | 80 | 3.0 0.8 | 0.00 | 0.00 | 54.7 9.2 | 49.6 3.0 |
| Wooden Valley | 5/10/26 | 0815 | 53.6 7.7 | 85 17 | 49.3 1.4 | 5.9 3.3 | WSW | 240 | 11.4 5.0 | 0.00 | 0.00 | 57.1 5.9 | 50.5 1.2 |
| Max | 54.3 | 100 | 53.0 | 7.0 | - | 11.4 | 0.00 | 0.00 | 57.1 | 52.9 | ||
| Avg | 51.9 | 84 | 38.4 | 2.6 | - | 5.5 | 0.00 | - | - | - | ||
| Min | 49.5 | 0 | -66.0 | 0.3 | - | 2.9 | 0.00 | 0.00 | 49.7 | 42.5 |